Temperature
30 30 28 27 29 29 29 28 26 26 27 28 28 27 26 25 24 23 22 21 20 19 19 18 18 18 17 17 17 17 17 17 17 17 17 16 16 16 16 16 16 15 15 15
30 27 27 29 30 30 30 29 27 27 27 28 28 27 26 25 25 24 23 21 21 20 19 18 18 18 17 17 17 17 16 16 16 16 16 16 16 16 16 16 15 15 15 15
28 27 28 29 30 30 29 28 27 26 27 28 27 26 24 24 24 23 23 22 21 21 20 19 19 18 18 17 17 17 16 16 15 15 15 15 15 15 15 15 15 14 14 14
29 29 29 29 29 29 27 28 28 27 26 26 26 23 23 23 23 24 23 23 22 22 21 20 19 19 18 18 17 17 16 15 15 15 14 14 14 14 14 14 14 14 14 14
28 29 30 29 29 29 29 29 28 26 25 24 22 20 20 21 22 23 24 24 23 22 21 20 20 19 19 18 17 17 16 15 15 14 14 13 13 13 13 13 13 13 13 13
28 31 31 31 31 31 31 29 26 22 21 20 19 19 20 21 22 23 24 24 23 22 22 21 20 19 19 18 17 17 16 15 14 14 13 13 12 12 12 12 12 13 13 13
26 28 30 31 31 30 30 28 25 21 19 19 20 20 21 24 24 25 25 24 23 23 22 21 20 19 19 18 17 17 16 15 14 13 13 12 12 12 12 12 12 12 12 12
25 26 29 31 30 29 29 28 25 24 24 23 22 21 23 25 25 25 25 24 23 23 22 21 20 20 19 18 17 16 15 14 13 13 12 12 11 11 11 11 11 11 11 11
27 28 31 31 31 30 29 29 29 28 27 25 23 23 23 25 25 25 25 24 24 23 22 21 20 19 18 17 16 15 15 14 13 12 12 11 11 11 11 10 10 10 10 11
29 28 30 31 31 30 30 30 29 28 26 26 26 24 23 24 25 25 25 24 23 22 21 20 19 18 17 16 15 15 14 13 12 12 11 11 11 10 10 10 9 9 9 10
30 28 29 30 29 29 29 29 28 28 27 26 26 24 25 25 25 25 25 24 23 21 20 19 18 17 16 16 15 14 13 12 12 11 11 10 10 10 9 9 9 9 9 9
30 29 28 28 29 30 30 29 28 27 26 27 27 25 26 26 26 25 24 23 22 20 19 19 18 17 16 15 14 13 12 12 11 11 10 10 10 9 9 9 9 9 8 8
28 27 27 25 24 27 29 29 29 28 27 27 26 25 26 27 26 24 23 22 21 20 19 18 17 16 15 14 13 12 12 11 11 10 10 10 9 9 9 9 8 8 8 8
27 28 27 26 26 28 29 29 29 28 27 26 26 26 27 26 25 24 22 21 20 19 18 17 16 15 14 13 12 12 11 11 10 10 9 9 9 9 9 8 8 8 8 8
28 28 28 29 29 29 29 29 29 28 27 26 26 26 26 25 24 23 22 21 20 19 18 16 15 14 13 13 12 11 11 10 10 9 9 9 9 9 8 8 8 8 8 8
28 27 27 28 29 29 28 29 28 28 27 27 27 26 26 25 24 23 21 20 19 18 17 16 15 14 13 12 12 11 11 10 10 9 9 9 9 8 8 8 8 8 8 8
28 27 26 26 28 28 27 28 28 28 28 27 26 26 25 24 23 22 21 20 18 17 16 15 14 13 13 12 11 11 10 10 9 9 9 9 8 8 8 8 8 8 8 7
27 26 26 26 27 25 28 29 29 27 27 27 27 26 25 24 23 21 19 18 17 16 15 14 13 13 12 12 11 11 10 9 9 9 9 8 8 8 8 8 8 7 7 7
28 26 26 26 26 27 28 28 28 27 26 27 26 25 24 23 22 20 18 18 17 16 15 14 13 13 12 11 11 10 10 9 9 9 9 8 8 8 8 7 7 7 7 7
28 27 26 26 25 25 27 28 27 26 25 25 25 24 23 23 22 21 19 18 16 15 14 13 13 12 12 11 10 9 9 9 9 8 8 8 8 8 8 8 8 8 7 7
27 26 26 25 25 27 27 27 27 25 23 24 24 23 22 22 20 19 19 17 16 15 14 13 12 12 11 10 10 9 9 9 8 8 8 8 8 7 8 8 8 8 7 7
28 27 27 27 26 26 27 27 26 25 24 24 23 23 22 21 20 19 18 17 16 15 14 13 12 11 11 10 9 9 9 8 8 8 8 8 8 8 8 8 8 8 8 8
28 28 27 27 26 26 26 26 26 25 24 23 23 22 21 20 19 19 18 16 15 14 13 13 12 11 11 10 9 9 8 8 8 8 8 8 8 8 8 8 8 8 8 8
29 29 27 26 27 27 27 26 26 25 24 23 22 22 21 20 19 18 17 16 15 14 13 12 12 11 10 10 9 9 8 8 8 7 7 7 7 8 8 8 8 8 8 8
28 27 27 26 27 27 27 26 26 25 24 23 22 21 20 19 19 18 17 15 14 13 13 12 11 11 10 10 9 9 8 8 8 7 7 7 7 8 8 8 8 8 8 8
28 28 27 27 27 27 26 26 25 24 24 23 22 21 20 19 18 17 16 15 14 13 13 12 11 11 10 10 9 8 8 8 7 7 7 7 7 8 8 8 8 8 8 8
Wind_Speed
14 10 7 8 10 9 9 8 7 5 5 6 5 9 10 9 10 10 10 9 9 9 8 7 6 7 7 6 6 5 6 6 5 5 6 5 5 5 3 2 3 4 5 6
7 6 13 14 12 11 7 4 0 1 4 7 5 7 8 7 8 9 10 10 10 9 8 7 6 5 6 5 3 3 5 5 5 5 5 5 5 5 4 2 2 2 3 4
3 7 14 15 10 9 8 6 4 5 7 8 6 7 9 7 7 7 9 9 9 9 8 7 5 4 3 3 1 2 2 3 4 6 6 6 6 6 5 5 3 2 3 3
3 6 10 9 7 9 6 7 8 7 6 6 5 3 6 9 9 8 9 9 9 7 7 5 4 3 1 0 0 1 1 2 3 5 6 8 8 8 8 6 5 6 5 4
7 9 9 8 5 7 5 5 4 8 8 8 6 3 2 8 9 10 10 9 7 6 5 3 2 1 1 3 3 2 2 2 3 5 7 8 8 8 8 8 10 9 8 6
15 11 6 6 6 7 7 5 5 12 8 7 5 3 5 9 10 10 9 7 5 3 3 2 1 1 2 4 4 4 3 5 6 6 8 8 9 8 10 11 11 10 7 6
14 10 9 5 7 6 9 8 3 4 1 7 10 5 5 8 10 9 8 5 3 2 1 1 3 4 4 5 5 4 4 5 6 7 8 8 9 10 11 11 9 8 7 7
5 5 5 5 7 7 9 7 5 7 6 3 6 3 5 10 9 7 5 2 0 1 2 3 4 4 5 6 6 6 6 6 6 7 8 8 9 9 8 9 10 10 9 9
5 6 5 2 4 6 8 8 9 9 10 3 4 7 7 7 7 4 2 2 4 5 6 6 7 8 8 8 7 7 7 7 6 7 8 8 8 7 9 9 10 10 8 10
7 10 7 3 2 2 7 9 8 8 8 7 3 6 6 6 4 5 6 6 7 8 9 10 10 10 9 8 7 7 7 7 7 8 8 10 8 8 8 9 9 9 10 10
8 7 9 5 3 6 7 7 7 8 8 8 6 6 8 5 4 5 7 8 8 9 10 10 10 9 9 9 9 8 8 8 8 8 7 7 8 8 9 9 9 9 9 9
7 6 8 8 10 8 4 5 6 6 7 7 7 5 4 2 5 8 8 8 9 9 10 10 10 10 10 10 11 10 10 9 9 8 8 8 8 9 10 11 10 10 10 10
8 6 6 4 6 9 5 3 6 8 7 7 7 4 4 4 9 10 10 10 9 9 10 10 10 10 10 10 11 11 12 11 11 10 9 9 10 10 10 10 10 10 10 10
4 6 7 6 3 5 6 5 4 6 7 8 9 9 8 10 10 10 9 8 9 10 9 10 10 9 10 10 10 11 12 12 12 12 12 11 10 10 11 11 11 11 11 11
4 9 9 9 8 7 8 8 7 6 7 9 10 11 9 10 10 9 9 9 10 10 10 11 11 10 10 10 10 11 11 11 11 12 13 12 11 10 11 11 11 11 12 14
1 6 12 13 11 9 11 10 7 6 7 9 10 10 9 10 10 10 10 10 9 10 11 12 12 12 11 11 11 11 11 11 10 11 13 12 12 12 12 11 12 12 12 12
6 6 10 13 13 11 10 5 2 5 8 9 10 9 9 10 11 10 9 7 8 10 12 12 12 11 10 10 10 10 11 11 12 12 13 12 13 13 13 14 14 13 13 13
6 8 7 12 14 14 7 1 2 3 6 8 10 6 9 10 10 8 7 6 8 10 11 11 12 12 12 11 11 10 12 13 13 13 13 13 13 14 13 13 14 13 12 12
8 6 8 10 13 12 4 2 1 3 7 7 5 7 10 11 11 6 7 6 7 9 9 10 12 13 12 12 11 12 13 13 14 14 14 14 14 15 14 15 14 13 12 12
6 7 8 10 14 16 13 6 5 3 2 8 7 7 9 10 9 5 8 8 8 9 9 10 11 12 11 11 12 13 14 14 14 14 15 15 14 15 15 15 14 12 11 12
9 10 11 12 14 9 8 7 2 7 3 3 7 7 8 7 6 8 8 8 8 9 10 10 11 10 10 10 11 12 14 14 14 15 15 15 15 15 15 13 11 11 11 11
9 9 10 11 11 4 5 3 6 4 1 4 6 6 6 6 6 7 8 8 8 9 10 11 10 10 10 10 10 13 13 14 14 15 16 15 15 15 15 13 11 11 10 10
7 7 6 6 7 2 5 6 4 2 3 4 5 5 5 6 7 7 7 7 8 9 10 10 11 11 10 10 10 12 13 13 15 15 16 16 17 15 13 12 11 10 8 8
10 7 6 8 9 9 10 10 6 4 4 4 4 4 4 6 6 7 7 7 8 8 9 10 11 12 11 11 11 11 12 13 14 15 16 15 15 15 13 10 9 8 8 7
13 12 13 13 12 11 10 8 6 4 4 4 4 4 5 5 6 6 6 6 7 8 9 9 10 11 12 11 11 11 11 12 14 15 15 15 14 13 12 11 8 8 6 4
13 12 10 10 8 8 9 8 5 5 6 6 6 6 5 5 5 5 6 6 7 8 9 9 11 12 13 12 12 11 11 12 13 14 14 13 13 12 11 11 10 7 6 5
Wind_Direction
239 242 279 286 273 259 246 214 189 177 230 252 190 146 146 151 148 140 136 129 120 114 113 108 102 100 94 86 76 62 47 36 5 15 349 339 341 333 316 314 53 13 345 340
263 299 295 277 264 276 283 307 198 158 273 272 180 151 138 145 139 134 132 132 134 133 128 129 134 121 105 97 87 83 50 27 3 5 322 306 324 308 296 347 36 10 349 338
207 239 257 271 294 315 324 337 299 256 248 255 223 176 144 138 136 139 142 142 142 145 142 142 133 121 118 110 88 55 48 4 0 344 322 336 325 310 322 330 318 350 326 310
282 246 252 281 307 302 308 306 296 289 270 264 240 226 157 164 177 168 162 154 147 139 141 148 157 150 146 209 100 85 44 11 355 337 332 328 315 314 317 318 321 321 303 283
311 282 270 284 271 273 276 262 300 340 337 327 357 356 234 192 185 175 170 156 149 152 155 162 177 184 307 325 344 355 33 17 352 338 320 316 313 318 315 317 310 305 292 270
307 290 282 288 284 281 282 279 24 31 13 333 299 275 207 201 187 175 168 155 158 173 185 181 246 285 307 316 316 330 22 14 356 335 324 316 316 314 310 301 293 292 287 284
307 307 304 304 306 319 302 294 329 2 280 251 225 226 190 171 157 152 142 138 162 186 212 251 279 296 307 310 323 341 2 357 343 330 322 320 316 309 295 290 299 309 312 310
287 280 288 333 338 321 299 301 301 297 284 244 185 190 116 105 104 106 107 108 297 307 320 305 309 328 338 340 354 353 352 338 330 320 313 308 297 296 302 317 322 310 300 295
302 311 289 335 327 317 317 322 317 308 315 346 148 136 117 122 122 103 56 8 357 358 343 339 351 351 351 354 357 350 342 335 327 318 307 293 295 313 315 310 300 298 301 301
310 316 314 333 284 309 327 331 342 333 339 338 62 100 119 121 52 18 10 9 3 352 352 357 353 347 351 349 348 344 339 332 324 315 312 315 324 312 301 302 300 296 292 291
334 314 307 308 343 346 335 353 356 340 345 335 349 78 101 72 21 12 8 5 358 355 353 348 345 350 349 343 340 341 335 329 322 318 317 313 307 306 304 298 294 295 297 296
349 319 317 348 10 331 321 353 343 334 334 317 323 104 103 89 40 35 12 5 6 1 349 344 344 348 342 338 337 332 329 324 320 320 315 310 307 305 302 302 301 299 294 291
344 318 308 354 353 293 286 5 340 332 318 317 328 93 191 44 43 29 13 2 352 354 349 344 346 343 339 338 332 328 325 322 321 318 315 314 310 307 303 302 299 296 293 289
292 293 307 322 304 292 313 324 326 319 321 332 340 349 354 36 20 9 356 346 348 351 350 347 344 339 339 331 329 325 321 320 317 318 316 309 305 303 301 300 297 294 292 289
294 307 317 310 309 312 314 310 311 311 316 310 324 326 15 30 7 358 349 350 345 346 345 344 339 335 331 329 326 321 319 318 318 315 311 307 304 303 300 298 297 294 292 291
217 308 308 305 302 287 288 288 278 288 297 299 311 321 29 17 2 354 347 337 334 342 340 335 332 331 328 325 322 322 318 318 317 312 309 307 305 303 301 301 299 296 294 292
297 300 306 305 309 300 301 298 278 317 317 318 314 332 16 360 348 338 333 338 347 341 333 333 333 328 323 322 324 321 320 319 316 313 309 308 307 306 305 307 305 301 299 295
262 297 299 294 301 297 306 275 312 327 320 310 305 355 14 352 345 3 50 34 348 335 337 336 328 323 322 326 325 324 322 320 317 313 311 312 310 308 308 306 302 300 299 296
206 244 282 293 294 298 309 226 194 325 309 320 352 12 349 348 328 80 57 10 349 346 340 329 323 321 323 325 328 325 321 319 316 315 316 316 314 311 308 306 303 301 299 297
205 204 251 275 289 295 309 107 95 336 327 48 24 355 342 334 321 352 14 360 0 345 332 325 323 323 325 328 328 323 319 318 318 319 318 316 313 310 307 303 301 301 298 295
224 230 244 266 276 292 82 101 305 313 54 6 347 343 333 342 321 323 335 353 349 335 329 329 329 326 326 326 325 319 318 319 321 319 316 314 312 309 303 302 303 302 299 299
283 278 273 277 283 315 105 310 338 3 357 324 329 328 332 321 312 322 336 344 338 332 331 333 330 327 325 327 325 319 319 323 322 319 316 315 313 311 310 307 304 303 301 301
280 290 301 308 314 292 262 297 317 322 301 306 309 322 325 312 314 323 333 338 333 330 332 331 328 325 324 329 328 319 321 324 322 320 317 315 313 310 307 306 305 305 304 304
311 347 309 290 285 290 293 296 284 265 257 272 291 303 300 298 309 320 328 329 329 330 328 329 327 325 325 328 328 322 323 325 322 320 318 314 312 311 312 310 308 307 310 312
301 292 279 274 274 273 272 277 269 259 236 244 261 267 273 284 295 309 320 325 330 324 324 326 325 324 324 328 325 325 328 327 323 320 318 316 313 312 313 312 310 305 309 302
287 292 296 299 309 299 295 288 262 242 236 241 249 260 266 275 290 304 313 322 319 318 324 325 326 325 326 326 326 329 331 329 324 319 318 317 314 314 315 316 314 295 279 259
Height
1479 1484 1487 1485 1477 1476 1475 1481 1488 1489 1483 1480 1481 1485 1490 1495 1497 1501 1504 1508 1510 1512 1514 1515 1515 1516 1516 1516 1515 1515 1514 1514 1513 1512 1511 1510 1510 1508 1507 1505 1503 1500 1499 1497
1479 1487 1484 1477 1472 1469 1470 1477 1484 1483 1479 1478 1479 1484 1488 1494 1497 1500 1504 1507 1510 1512 1514 1515 1516 1516 1516 1516 1516 1515 1514 1513 1512 1511 1510 1509 1508 1506 1505 1503 1500 1498 1496 1494
1486 1484 1476 1473 1471 1471 1473 1479 1483 1485 1479 1475 1481 1489 1492 1495 1499 1503 1505 1507 1509 1511 1513 1515 1516 1516 1516 1516 1516 1515 1513 1511 1510 1509 1508 1506 1504 1503 1502 1500 1498 1495 1493 1491
1476 1475 1473 1473 1474 1474 1481 1475 1475 1480 1487 1489 1487 1505 1499 1498 1500 1501 1504 1506 1508 1510 1512 1513 1514 1515 1515 1515 1515 1513 1511 1509 1508 1506 1505 1503 1501 1499 1498 1496 1494 1492 1490 1488
1479 1473 1472 1473 1472 1470 1474 1471 1476 1483 1492 1498 1504 1516 1512 1503 1503 1499 1500 1503 1506 1508 1510 1512 1513 1514 1514 1514 1513 1511 1509 1507 1505 1503 1502 1500 1498 1496 1493 1491 1489 1487 1485 1484
1478 1469 1466 1465 1464 1464 1465 1470 1481 1494 1507 1523 1519 1524 1517 1505 1499 1497 1498 1501 1505 1507 1509 1510 1511 1511 1511 1511 1510 1509 1506 1504 1502 1500 1498 1496 1494 1491 1488 1486 1484 1482 1481 1480
1489 1475 1466 1462 1465 1465 1466 1477 1500 1521 1532 1527 1508 1515 1507 1492 1490 1492 1496 1500 1503 1505 1506 1508 1508 1509 1508 1508 1507 1505 1503 1501 1499 1497 1495 1492 1490 1487 1484 1482 1480 1478 1476 1475
1500 1492 1471 1464 1467 1471 1469 1475 1497 1512 1508 1502 1500 1509 1497 1488 1491 1493 1496 1499 1501 1502 1504 1505 1505 1506 1505 1505 1503 1502 1499 1497 1495 1493 1490 1488 1485 1482 1480 1478 1475 1473 1471 1470
1490 1484 1464 1462 1464 1467 1470 1471 1466 1477 1477 1490 1499 1498 1494 1488 1491 1493 1494 1496 1498 1500 1502 1503 1503 1503 1503 1501 1500 1498 1496 1493 1491 1488 1486 1483 1481 1478 1475 1472 1470 1467 1466 1464
1474 1481 1465 1461 1462 1464 1466 1466 1471 1481 1493 1495 1490 1495 1501 1493 1492 1492 1493 1496 1498 1500 1501 1501 1502 1501 1500 1499 1497 1495 1492 1490 1487 1484 1481 1479 1476 1472 1469 1466 1464 1461 1459 1457
1470 1481 1474 1466 1469 1472 1471 1472 1475 1478 1481 1495 1497 1502 1488 1490 1490 1491 1493 1495 1498 1499 1500 1500 1500 1499 1497 1496 1494 1491 1489 1486 1483 1480 1477 1473 1470 1467 1464 1461 1458 1456 1453 1451
1472 1477 1483 1478 1472 1468 1468 1473 1476 1490 1491 1484 1489 1500 1483 1485 1486 1490 1493 1495 1497 1498 1499 1499 1498 1496 1495 1493 1490 1488 1485 1482 1479 1475 1472 1469 1465 1462 1459 1456 1453 1450 1447 1445
1481 1485 1493 1497 1499 1483 1473 1471 1473 1476 1481 1485 1492 1496 1483 1481 1486 1490 1493 1496 1497 1497 1497 1497 1495 1494 1492 1490 1487 1484 1481 1478 1475 1471 1468 1464 1460 1457 1454 1450 1447 1444 1441 1438
1485 1485 1491 1499 1492 1479 1475 1472 1472 1479 1487 1491 1488 1487 1480 1483 1487 1490 1493 1495 1495 1496 1496 1495 1493 1491 1489 1487 1484 1481 1478 1474 1471 1467 1463 1459 1456 1452 1449 1445 1442 1438 1435 1432
1483 1484 1480 1477 1471 1471 1473 1473 1473 1478 1482 1488 1486 1484 1482 1485 1488 1490 1492 1493 1494 1494 1494 1493 1491 1489 1486 1483 1480 1477 1474 1470 1467 1462 1459 1455 1451 1448 1444 1440 1436 1432 1429 1426
1481 1488 1484 1481 1472 1471 1472 1469 1471 1475 1477 1479 1481 1482 1480 1484 1487 1489 1491 1492 1492 1492 1492 1490 1488 1486 1483 1480 1477 1473 1470 1466 1463 1458 1454 1450 1447 1443 1439 1435 1431 1426 1422 1419
1480 1484 1489 1488 1474 1473 1478 1469 1470 1473 1473 1476 1482 1481 1480 1484 1487 1488 1489 1490 1491 1491 1490 1488 1485 1483 1480 1477 1473 1470 1466 1462 1458 1454 1450 1446 1442 1437 1433 1429 1425 1420 1416 1412
1483 1487 1489 1487 1484 1496 1475 1463 1465 1471 1474 1474 1475 1477 1482 1484 1486 1487 1487 1489 1490 1489 1487 1485 1483 1480 1477 1473 1470 1466 1462 1458 1454 1450 1445 1441 1437 1432 1428 1423 1419 1414 1410 1406
1476 1484 1489 1490 1490 1482 1470 1465 1467 1473 1476 1472 1475 1480 1482 1483 1485 1486 1488 1488 1488 1486 1485 1482 1480 1477 1473 1470 1466 1462 1458 1454 1450 1446 1441 1436 1432 1427 1422 1417 1413 1409 1404 1399
1472 1478 1486 1487 1494 1494 1472 1462 1467 1473 1478 1478 1479 1481 1483 1483 1484 1484 1486 1486 1485 1484 1482 1479 1476 1473 1470 1466 1462 1458 1454 1450 1446 1441 1437 1432 1427 1422 1417 1412 1408 1403 1398 1394
1477 1479 1483 1485 1485 1474 1466 1467 1469 1480 1484 1480 1480 1481 1483 1483 1486 1486 1484 1483 1482 1481 1479 1476 1473 1470 1467 1463 1459 1455 1451 1447 1442 1437 1432 1427 1422 1417 1412 1408 1403 1398 1393 1389
1472 1475 1476 1475 1481 1480 1469 1468 1472 1477 1476 1477 1479 1480 1481 1482 1483 1482 1482 1481 1480 1478 1476 1473 1470 1467 1463 1459 1455 1451 1447 1443 1437 1432 1427 1422 1417 1413 1408 1403 1398 1394 1389 1385
1463 1464 1467 1470 1474 1470 1468 1468 1470 1472 1474 1476 1478 1479 1480 1480 1480 1480 1480 1479 1477 1476 1473 1470 1467 1464 1460 1456 1452 1447 1443 1438 1433 1428 1423 1418 1413 1408 1404 1399 1395 1390 1386 1382
1461 1460 1464 1466 1464 1464 1465 1465 1466 1469 1471 1474 1475 1477 1477 1478 1478 1478 1477 1476 1475 1473 1470 1467 1464 1460 1457 1453 1449 1444 1439 1435 1429 1424 1418 1413 1409 1404 1400 1396 1391 1387 1383 1379
1463 1462 1462 1462 1460 1460 1460 1462 1463 1466 1468 1470 1472 1474 1475 1475 1475 1475 1474 1473 1472 1470 1467 1465 1461 1457 1454 1450 1445 1441 1436 1431 1426 1420 1415 1410 1405 1401 1396 1392 1388 1384 1381 1377
1458 1457 1458 1458 1457 1458 1459 1460 1461 1463 1466 1468 1469 1471 1472 1472 1472 1472 1472 1470 1469 1467 1464 1462 1458 1455 1451 1446 1442 1438 1433 1428 1423 1417 1411 1407 1402 1398 1393 1389 1385 1381 1378 1374